Location: Miami, Florida
(25.6830°N, 80.1700°W)
Time: 22:52:00
(UTC-04:00)

Hubble Space Telescope - Visible Passes

Search period start: 18 November 2017 00:00
Search period end: 28 November 2017 00:00
Orbit: 537 x 541 km, 28.5° (Epoch: 18 November)

Date Brightness Start Highest point End Pass type
(mag) Time Alt. Az. Time Alt. Az. Time Alt. Az.
18 Nov 2.5 05:28:50 30° E 05:28:50 30° E 05:31:07 10° E visible
18 Nov 0.9 07:04:13 10° W 07:08:17 63° N 07:12:23 10° ENE visible
19 Nov 3.2 05:19:27 21° E 05:19:27 21° E 05:20:57 10° E visible
19 Nov 0.9 06:54:50 15° W 06:58:08 59° N 07:02:13 10° ENE visible
20 Nov 3.6 05:10:00 15° ENE 05:10:00 15° ENE 05:10:46 10° ENE visible
20 Nov 1.0 06:45:22 21° WNW 06:47:58 57° N 06:52:03 10° ENE visible
21 Nov 4.0 05:00:30 10° ENE 05:00:30 10° ENE 05:00:35 10° ENE visible
21 Nov 1.0 06:35:52 28° WNW 06:37:50 56° N 06:41:54 10° E visible
22 Nov 1.0 06:26:19 37° WNW 06:27:41 58° N 06:31:45 10° E visible
23 Nov 0.9 06:16:45 50° NW 06:17:31 61° N 06:21:37 10° E visible
24 Nov 0.7 06:07:10 66° NNW 06:07:21 67° N 06:11:28 10° E visible
25 Nov 0.9 05:57:36 67° ENE 05:57:36 67° ENE 06:01:19 10° E visible
26 Nov 1.6 05:48:02 50° E 05:48:02 50° E 05:51:08 10° ESE visible
27 Nov 2.3 05:38:28 35° ESE 05:38:28 35° ESE 05:40:56 10° ESE visible
27 Nov 2.4 07:14:25 10° W 07:17:48 24° SSW 07:21:10 10° SSE visible
